Location: Stanford
(52.2833°N, 2.4333°W)
Time: 19:51:58
(UTC+00:00)

NOSS 3-4 (C) - Pass Details

Date: 22 January 2021
Orbit: 878 x 1335 km, 63.4° (Epoch: 16 February)

Event Time Altitude Azimuth Distance (km) Brightness Sun altitude
Rises 18:14:41 0° 264° (W) 3,526 8.3 -14.3°
Reaches altitude 10° 18:17:18 10° 273° (W) 2,624 7.0 -14.7°
Maximum altitude 18:22:58 38° 341° (NNW) 1,456 4.5 -15.5°
Enters shadow 18:27:48 16° 42° (NE) 2,434 5.1 -16.3°
